This is the latest recevied weather packets stored in our database for station/object KO4DYK. If no packets are shown the sender has not sent any weather packets the latest 10 day(s).
| Time | Temp. | Humidity | Pressure | Rain* | Wind** | Luminosity | Snow |
|---|---|---|---|---|---|---|---|
| 1777590068 | 16.67° C | 58% | 1019.2 hPa | 0 mm | - | 85 W/m² | - |
| 1777589764 | 16.67° C | 57% | 1019 hPa | 0 mm | - | 83 W/m² | - |
| 1777589462 | 17.22° C | 57% | 1019.2 hPa | 0 mm | - | 79 W/m² | - |
| 1777589158 | 17.22° C | 58% | 1018.7 hPa | 0 mm | - | 88 W/m² | - |
| 1777588854 | 17.22° C | 53% | 1018.7 hPa | 0 mm | - | 80 W/m² | - |
| 1777588550 | 16.67° C | 54% | 1018.6 hPa | 0 mm | - | 98 W/m² | - |
| 1777588246 | 16.67° C | 51% | 1018.7 hPa | 0 mm | - | 88 W/m² | - |
| 1777587940 | 16.67° C | 52% | 1018.6 hPa | 0 mm | - | 94 W/m² | - |
| 1777587638 | 17.22° C | 52% | 1018.7 hPa | 0 mm | - | 115 W/m² | - |
| 1777587338 | 17.22° C | 52% | 1019 hPa | 0 mm | - | 120 W/m² | - |
| 1777587033 | 17.22° C | 52% | 1019 hPa | 0 mm | - | 139 W/m² | - |
| 1777586729 | 17.22° C | 51% | 1019.1 hPa | 0 mm | - | 149 W/m² | - |
| 1777586425 | 17.22° C | 51% | 1018.9 hPa | 0 mm | - | 161 W/m² | - |
| 1777586125 | 17.22° C | 53% | 1019.2 hPa | 0 mm | - | 178 W/m² | - |
| 1777585824 | 17.22° C | 52% | 1019.5 hPa | 0 mm | - | 163 W/m² | - |
| 1777585523 | 17.78° C | 47% | 1019.6 hPa | 0 mm | - | 156 W/m² | - |
| 1777585219 | 17.78° C | 50% | 1019.7 hPa | 0 mm | - | 202 W/m² | - |
| 1777584914 | 17.78° C | 51% | 1019.6 hPa | 0 mm | - | 226 W/m² | - |
| 1777584612 | 17.78° C | 51% | 1019.7 hPa | 0 mm | - | 248 W/m² | - |
| 1777584309 | 17.78° C | 53% | 1019.6 hPa | 0 mm | - | 256 W/m² | - |
| 1777584003 | 17.78° C | 51% | 1019.7 hPa | 0 mm | - | 269 W/m² | - |
| 1777583699 | 18.33° C | 51% | 1019.7 hPa | 0 mm | - | 249 W/m² | - |
| 1777583398 | 17.78° C | 50% | 1019.7 hPa | 0 mm | - | 403 W/m² | - |
| 1777583097 | 18.33° C | 50% | 1019.5 hPa | 0 mm | - | 274 W/m² | - |
| 1777582794 | 17.78° C | 50% | 1019.5 hPa | 0 mm | - | 350 W/m² | - |
* Rain latest hour (hover to see other rain measurements)
** Current wind speed in m/s (hover to see current wind gust speed)